Regional Weather Roundup
Issued by NWS Albany, NY

Home | Current Version | Previous Version | Graphics & Text | Print | Product List | Glossary Off
Versions: 1 2 3 4 5 6 7 8 9 10 11 12 13 14 15 16 17 18 19 20 21 22 23 24 25 26 27

000
ASUS41 KALY 221310
RWRALY

NEW YORK STATE HOURLY WEATHER ROUNDUP
NATIONAL WEATHER SERVICE ALBANY NY
900 AM EDT TUE APR 22 2014

NOTE: "FAIR" INDICATES FEW OR NO CLOUDS BELOW 12,000 FEET WITH NO
SIGNIFICANT WEATHER AND/OR NO OBSTRUCTIONS TO VISIBILITY.

NYZ032-033-038>043-046>054-057>066-NYZ062>081-221400-
EAST


CITY           SKY/WX    TMP DP  RH WIND       PRES   REMARKS
ALBANY         CLOUDY    56  34  43 S12G24    29.65F
GLENS FALLS    CLOUDY    58  35  42 S9        29.63F
POUGHKEEPSIE   PTSUNNY   56  42  59 SE3       29.68F
NEWBURGH       MOSUNNY   55  41  58 CALM      29.70F
MONTGOMERY     PTSUNNY   56  40  55 SW8       29.67F
WHITE PLAINS   CLOUDY    55  45  68 S7        29.71F
ISLIP          PTSUNNY   55  45  68 SW10      29.73F
NEW YORK CITY  PTSUNNY   55  45  68 SW9       29.73F
CENTRAL PARK   PTSUNNY   55  45  68 VRB7      29.75F
$$

NYZ005>009-017-018-044>046-055-056-221400-
CENTRAL


CITY           SKY/WX    TMP DP  RH WIND       PRES   REMARKS
FULTON         LGT RAIN  59  45  59 SW6       29.58S
SYRACUSE       LGT RAIN  59  46  62 S12       29.59F
ROME           LGT RAIN  54  37  52 E7        29.62F
ELMIRA         LGT RAIN  57  41  55 E3        29.62F
BINGHAMTON     CLOUDY    57  30  35 S6        29.64F
MONTICELLO     PTSUNNY   54  30  40 W5        29.70S
$$

NYZ026>034-041>043-221400-
NORTH


CITY           SKY/WX    TMP DP  RH WIND       PRES   REMARKS
WATERTOWN      LGT RAIN  58  47  66 SW5       29.55F
FORT DRUM      NOT AVBL
MASSENA        CLOUDY    53  48  83 CALM      29.56F
SARANAC LAKE   CLOUDY    52  39  61 CALM      29.56F
PLATTSBURGH    CLOUDY    53  41  63 E5        29.56F
$$

NYZ001>004-010>016-019>021-221400-
WEST


CITY           SKY/WX    TMP DP  RH WIND       PRES   REMARKS
NIAGARA FALLS  RAIN      47  45  93 W9        29.58S FOG
BUFFALO        LGT RAIN  51  50  96 SW12      29.58F VSB 1/2
DUNKIRK        CLOUDY    55  53  93 SW7       29.60F FOG
JAMESTOWN      CLOUDY    54  52  94 SW10      29.63F
WELLSVILLE     LGT RAIN  56  47  71 SW13G18   29.64F
ROCHESTER      LGT RAIN  58  54  86 SW14      29.57F
PENN YAN       CLOUDY    57  48  72 S8        29.60F
$$

             KEY
       WCI = WIND CHILL INDEX
       VSB = VISIBILITY
       HX  = HEAT INDEX
$$



USA.gov is the U.S. government's official web portal to all federal, state and local government web resources and services.